This demonstration page uses our WeatherBlox Daily Observations layout. Learn more.

Left ArrowRight Arrow

39.29038, -76.61219

Hourly Observations for February 21, 2021

Temp ( °F °C ) Dew Point ( °F °C ) Humidity (%) Winds ( mph kmh ) Pressure ( in mb ) Visibility ( mi km ) Precip ( " mm )
12:54 am 00:54 Clear 24 -4.4 10 -12.2 55 55 WNW 8 13 30.49 1032 10 16 N/A
1:54 am 01:54 Clear 22 -5.6 11 -11.7 63 63 W 7 11 30.50 1033 10 16 N/A
2:54 am 02:54 Clear 21 -6.1 11 -11.7 65 65 WNW 6 9 30.51 1033 10 16 N/A
3:54 am 03:54 Clear 21 -6.1 11 -11.7 65 65 WNW 7 11 30.51 1033 10 16 N/A
4:54 am 04:54 Clear 21 -6.1 10 -12.2 62 62 WNW 5 7 30.53 1034 10 16 N/A
5:54 am 05:54 Clear 20 -6.7 11 -11.7 68 68 W 8 13 30.56 1035 10 16 N/A
6:54 am 06:54 Sunny 20 -6.7 11 -11.7 68 68 W 6 9 30.58 1035 10 16 N/A
7:54 am 07:54 Sunny 25 -3.9 12 -11.1 58 58 WNW 6 9 30.59 1036 9 14 N/A
8:54 am 08:54 Sunny 29 -1.7 12 -11.1 49 49 W 9 15 30.61 1037 9 14 N/A
9:54 am 09:54 Sunny 32 undefined 13 -10.6 45 45 W 9 15 30.63 1037 10 16 N/A
10:54 am 10:54 Mostly Sunny 34 1.1 13 -10.6 42 42 N 6 9 30.62 1037 10 16 N/A
11:54 am 11:54 Mostly Sunny 35 1.7 13 -10.6 40 40 ENE 6 9 30.60 1036 10 16 N/A
12:54 pm 12:54 Mostly Sunny 37 2.8 12 -11.1 36 36 N N/A 30.57 1035 10 16 N/A
1:54 pm 13:54 Mostly Sunny 39 3.9 13 -10.6 34 34 W 8 13 30.55 1034 10 16 N/A
2:54 pm 14:54 Partly Cloudy 39 3.9 12 -11.1 33 33 undefined N/A 30.54 1034 10 16 N/A
3:54 pm 15:54 Partly Cloudy 39 3.9 11 -11.7 31 31 VRB 5 7 30.52 1034 10 16 N/A
4:54 pm 16:54 Mostly Cloudy 38 3.3 12 -11.1 34 34 SE 7 11 30.50 1033 10 16 N/A
5:54 pm 17:54 Mostly Cloudy 33 0.6 14 -10 45 45 SE 7 11 30.50 1033 10 16 N/A
6:54 pm 18:54 Mostly Cloudy 32 undefined 16 -8.9 52 52 SSE 5 7 30.52 1034 10 16 N/A
7:54 pm 19:54 Mostly Cloudy 32 undefined 15 -9.4 50 50 SSE 3 6 30.50 1033 10 16 N/A
8:54 pm 20:54 Partly Cloudy 31 -0.6 16 -8.9 54 54 SSE 3 6 30.49 1033 10 16 N/A
9:54 pm 21:54 Mostly Cloudy 31 -0.6 17 -8.3 56 56 SSE 3 6 30.48 1032 10 16 N/A
10:54 pm 22:54 Mostly Cloudy 32 undefined 17 -8.3 54 54 VRB 6 9 30.45 1031 10 16 N/A
11:54 pm 23:54 Cloudy 33 0.6 15 -9.4 47 47 S 5 7 30.42 1030 10 16 N/A

Powered by AerisWeather